| time (UTC) | temp F | wind direction | speed knots | gust knots | rain 1hr in | rain 24hr in | rain mn in | humidity % | barometer mb |
| 20260506170055 | 80 | 270 | 1.7 | 8.7 | 0.00 | 0.00 | 0.00 | 62 | 1015.5 |
| 20260506164544 | 80 | 177 | 0.9 | 3.5 | 0.00 | 0.00 | 0.00 | 64 | 1015.4 |
| 20260506163042 | 78 | 0 | 0.0 | 4.3 | 0.00 | 0.00 | 0.00 | 67 | 1015.6 |
| 20260506161550 | 77 | 270 | 0.9 | 4.3 | 0.00 | 0.00 | 0.00 | 67 | 1015.6 |
| 20260506160059 | 77 | 270 | 0.9 | 3.5 | 0.00 | 0.00 | 0.00 | 67 | 1015.6 |
| 20260506154549 | 77 | 270 | 0.9 | 3.5 | 0.00 | 0.00 | 0.00 | 67 | 1015.4 |
| 20260506153043 | 76 | 270 | 0.9 | 3.5 | 0.00 | 0.00 | 0.00 | 68 | 1015.3 |
| 20260506151545 | 75 | 270 | 0.9 | 4.3 | 0.00 | 0.00 | 0.00 | 69 | 1015.4 |
| 20260506150049 | 74 | 270 | 0.0 | 3.5 | 0.00 | 0.00 | 0.00 | 72 | 1015.5 |
| 20260506144551 | 73 | 270 | 0.9 | 2.6 | 0.00 | 0.00 | 0.00 | 72 | 1015.5 |
| 20260506143046 | 71 | 0 | 0.9 | 2.6 | 0.00 | 0.00 | 0.00 | 75 | 1015.6 |
| 20260506141547 | 71 | 0 | 0.9 | 3.5 | 0.00 | 0.00 | 0.00 | 76 | 1015.5 |
| 20260506140043 | 70 | 270 | 0.0 | 3.5 | 0.00 | 0.00 | 0.00 | 77 | 1015.5 |
| 20260506134548 | 69 | 0 | 0.0 | 2.6 | 0.00 | 0.00 | 0.00 | 78 | 1015.6 |
| 20260506133048 | 69 | 0 | 0.0 | 3.5 | 0.00 | 0.00 | 0.00 | 80 | 1015.5 |
| 20260506131557 | 68 | 0 | 0.9 | 4.3 | 0.00 | 0.00 | 0.00 | 81 | 1015.4 |
| 20260506130054 | 68 | 270 | 0.9 | 4.3 | 0.00 | 0.00 | 0.00 | 82 | 1015.5 |
| 20260506124543 | 67 | 270 | 0.9 | 4.3 | 0.00 | 0.00 | 0.00 | 82 | 1015.2 |
| 20260506123043 | 67 | 270 | 0.9 | 3.5 | 0.00 | 0.00 | 0.00 | 83 | 1015.0 |
| 20260506121545 | 66 | 270 | 0.9 | 2.6 | 0.00 | 0.00 | 0.00 | 83 | 1015.0 |
| 20260506120050 | 66 | 270 | 0.9 | 3.5 | 0.00 | 0.00 | 0.00 | 83 | 1014.9 |
| 20260506114545 | 65 | 270 | 0.0 | 1.7 | 0.00 | 0.00 | 0.00 | 84 | 1014.8 |
| 20260506113049 | 64 | 270 | 0.9 | 2.6 | 0.00 | 0.00 | 0.00 | 85 | 1014.6 |
| 20260506111543 | 63 | 270 | 0.0 | 1.7 | 0.00 | 0.00 | 0.00 | 85 | 1014.5 |
| 20260506110042 | 63 | 0 | 0.0 | 0.0 | 0.00 | 0.00 | 0.00 | 84 | 1014.6 |
| 20260506104546 | 63 | 0 | 0.0 | 0.0 | 0.00 | 0.00 | 0.00 | 83 | 1014.5 |
| 20260506103041 | 64 | 0 | 0.0 | 0.0 | 0.00 | 0.00 | 0.00 | 82 | 1014.4 |
| 20260506101545 | 64 | 0 | 0.0 | 0.0 | 0.00 | 0.00 | 0.00 | 81 | 1014.3 |
| 20260506100042 | 65 | 0 | 0.0 | 0.0 | 0.00 | 0.00 | 0.00 | 80 | 1014.4 |
| 20260506094554 | 65 | 0 | 0.0 | 2.6 | 0.00 | 0.00 | 0.00 | 79 | 1014.4 |
| 20260506093040 | 65 | 0 | 0.0 | 0.0 | 0.00 | 0.00 | 0.00 | 79 | 1014.5 |
| 20260506091540 | 65 | 0 | 0.0 | 2.6 | 0.00 | 0.00 | 0.00 | 78 | 1014.5 |
| 20260506090045 | 65 | 0 | 0.9 | 3.5 | 0.00 | 0.00 | 0.00 | 77 | 1014.7 |
| 20260506084545 | 65 | 0 | 0.0 | 0.0 | 0.00 | 0.00 | 0.00 | 77 | 1014.9 |
| 20260506083042 | 65 | 0 | 0.0 | 0.0 | 0.00 | 0.00 | 0.00 | 77 | 1014.9 |
| 20260506081545 | 65 | 0 | 0.0 | 0.0 | 0.00 | 0.00 | 0.00 | 78 | 1014.7 |
| 20260506073043 | 65 | 0 | 0.0 | 0.0 | 0.00 | 0.00 | 0.00 | 77 | 1014.7 |
| 20260506071545 | 65 | 0 | 0.0 | 0.0 | 0.00 | 0.00 | 0.00 | 76 | 1014.6 |
| 20260506061545 | 66 | 0 | 0.0 | 0.0 | 0.00 | 0.00 | 0.00 | 74 | 1015.1 |
| 20260506044547 | 68 | 270 | 0.9 | 3.5 | 0.00 | 0.00 | 0.00 | 69 | 1015.6 |
| 20260506043043 | 68 | 270 | 0.9 | 3.5 | 0.00 | 0.00 | 0.00 | 68 | 1015.7 |
| 20260506041541 | 68 | 270 | 0.9 | 3.5 | 0.00 | 0.00 | 0.00 | 68 | 1015.9 |
| 20260506040049 | 68 | 270 | 1.7 | 4.3 | 0.00 | 0.00 | 0.00 | 68 | 1015.8 |
| 20260506034543 | 69 | 270 | 1.7 | 4.3 | 0.00 | 0.00 | 0.00 | 68 | 1015.7 |
| 20260506033043 | 69 | 270 | 2.6 | 7.8 | 0.00 | 0.00 | 0.00 | 67 | 1015.6 |
| 20260506031550 | 69 | 270 | 2.6 | 5.2 | 0.00 | 0.00 | 0.00 | 67 | 1015.8 |
| 20260506030044 | 70 | 270 | 2.6 | 4.3 | 0.00 | 0.00 | 0.00 | 66 | 1016.1 |
| 20260506024553 | 70 | 270 | 2.6 | 4.3 | 0.00 | 0.00 | 0.00 | 65 | 1016.2 |
| 20260506023044 | 71 | 270 | 1.7 | 5.2 | 0.00 | 0.00 | 0.00 | 64 | 1016.5 |
| 20260506021542 | 71 | 270 | 2.6 | 5.2 | 0.00 | 0.00 | 0.00 | 62 | 1016.0 |
| 20260506020045 | 72 | 270 | 2.6 | 5.2 | 0.00 | 0.00 | 0.00 | 60 | 1015.6 |
| 20260506014544 | 72 | 270 | 2.6 | 5.2 | 0.00 | 0.00 | 0.00 | 58 | 1015.3 |
| 20260506013043 | 73 | 270 | 2.6 | 7.0 | 0.00 | 0.00 | 0.00 | 55 | 1015.1 |
| 20260506011544 | 74 | 270 | 2.6 | 5.2 | 0.00 | 0.00 | 0.00 | 55 | 1014.9 |
| 20260506010048 | 74 | 270 | 3.5 | 7.0 | 0.00 | 0.00 | 0.00 | 54 | 1014.7 |
| 20260506004543 | 75 | 270 | 2.6 | 7.0 | 0.00 | 0.00 | 0.00 | 53 | 1014.4 |
| 20260506003042 | 76 | 270 | 2.6 | 4.3 | 0.00 | 0.00 | 0.00 | 52 | 1014.2 |
| 20260506001542 | 77 | 270 | 2.6 | 4.3 | 0.00 | 0.00 | 0.00 | 50 | 1014.1 |
| 20260506000042 | 78 | 270 | 3.5 | 5.2 | 0.00 | 0.00 | 0.00 | 47 | 1014.1 |
| 20260505234550 | 79 | 270 | 1.7 | 3.5 | 0.00 | 0.00 | 0.00 | 45 | 1014.0 |
| 20260505233042 | 79 | 270 | 0.9 | 3.5 | 0.00 | 0.00 | 0.00 | 43 | 1014.0 |
| 20260505231552 | 80 | 270 | 0.9 | 4.3 | 0.00 | 0.00 | 0.00 | 41 | 1013.8 |
| 20260505230053 | 80 | 270 | 1.7 | 5.2 | 0.00 | 0.00 | 0.00 | 41 | 1013.9 |
| 20260505224547 | 81 | 270 | 1.7 | 4.3 | 0.00 | 0.00 | 0.00 | 41 | 1014.0 |
| 20260505223053 | 81 | 270 | 2.6 | 4.3 | 0.00 | 0.00 | 0.00 | 39 | 1014.2 |
| 20260505221549 | 81 | 270 | 0.9 | 3.5 | 0.00 | 0.00 | 0.00 | 37 | 1014.3 |
| 20260505220046 | 82 | 270 | 1.7 | 9.6 | 0.00 | 0.00 | 0.00 | 38 | 1014.1 |
| 20260505214544 | 82 | 270 | 1.7 | 7.0 | 0.00 | 0.00 | 0.00 | 37 | 1014.3 |
| 20260505213056 | 82 | 270 | 2.6 | 7.8 | 0.00 | 0.00 | 0.00 | 39 | 1014.2 |
| 20260505211548 | 82 | 270 | 1.7 | 5.2 | 0.00 | 0.00 | 0.00 | 38 | 1014.2 |
| 20260505210043 | 83 | 270 | 0.9 | 3.5 | 0.00 | 0.00 | 0.00 | 38 | 1014.6 |
| 20260505204542 | 83 | 270 | 1.7 | 7.0 | 0.00 | 0.00 | 0.00 | 39 | 1014.6 |
| 20260505203046 | 83 | 270 | 4.3 | 8.7 | 0.00 | 0.00 | 0.00 | 39 | 1014.6 |
| 20260505201548 | 84 | 270 | 1.7 | 4.3 | 0.00 | 0.00 | 0.00 | 35 | 1014.7 |
| 20260505200052 | 84 | 270 | 1.7 | 5.2 | 0.00 | 0.00 | 0.00 | 36 | 1014.9 |
| 20260505194546 | 84 | 270 | 0.9 | 9.6 | 0.00 | 0.00 | 0.00 | 38 | 1015.1 |
| 20260505193043 | 84 | 270 | 2.6 | 8.7 | 0.00 | 0.00 | 0.00 | 37 | 1015.3 |
| 20260505191606 | 84 | 270 | 2.6 | 7.0 | 0.00 | 0.00 | 0.00 | 37 | 1015.7 |
| 20260505190049 | 85 | 270 | 2.6 | 7.0 | 0.00 | 0.00 | 0.00 | 36 | 1015.6 |
| 20260505184551 | 85 | 270 | 1.7 | 4.3 | 0.00 | 0.00 | 0.00 | 37 | 1015.7 |
| 20260505183043 | 86 | 270 | 0.9 | 8.7 | 0.00 | 0.00 | 0.00 | 35 | 1015.9 |
| 20260505181542 | 85 | 270 | 3.5 | 7.8 | 0.00 | 0.00 | 0.00 | 36 | 1016.0 |
| 20260505180059 | 86 | 270 | 3.5 | 7.8 | 0.00 | 0.00 | 0.00 | 36 | 1016.0 |
| 20260505174554 | 84 | 270 | 1.7 | 7.0 | 0.00 | 0.00 | 0.00 | 38 | 1016.1 |
| 20260505173041 | 83 | 270 | 3.5 | 7.8 | 0.00 | 0.00 | 0.00 | 35 | 1016.2 |
| 20260505171548 | 83 | 270 | 0.9 | 7.8 | 0.00 | 0.00 | 0.00 | 40 | 1016.2 |